Date,TemperatureHighF,TemperatureAvgF,TemperatureLowF,DewpointHighF,DewpointAvgF,DewpointLowF,HumidityHigh,HumidityAvg,HumidityLow,PressureMaxIn,PressureMinIn,WindSpeedMaxMPH,WindSpeedAvgMPH,GustSpeedMaxMPH,PrecipitationSumIn
2012-1-1,55.3,41.1,32.7,49.6,34.8,20.5,96,80,48,30.12,29.88,28,2,28,0.16
2012-1-2,38.0,28.2,18.9,21.0,12.7,5.2,85,53,36,30.17,30.02,17,4,17,0.00
2012-1-3,23.8,19.5,16.7,12.8,9.6,7.3,80,66,52,30.38,30.17,12,3,12,0.00
2012-1-4,40.5,26.4,13.5,19.2,10.9,4.3,81,55,27,30.38,30.08,10,1,10,0.00
2012-1-5,49.2,37.2,29.4,25.8,22.2,15.9,71,56,28,30.15,30.05,10,1,10,0.00
2012-1-6,58.4,38.2,27.9,30.4,25.2,20.5,81,62,27,30.11,29.96,11,0,11,0.00
2012-1-7,56.6,48.6,35.3,50.0,42.8,27.2,97,81,58,30.05,29.90,12,1,12,0.12
2012-1-8,50.8,42.3,36.0,42.7,38.7,33.0,97,88,52,30.19,30.05,3,0,3,0.06
2012-1-9,50.4,45.7,41.3,49.7,44.8,40.2,98,97,95,30.14,30.00,7,0,7,0.46
2012-1-10,49.6,43.2,34.6,46.0,38.8,32.9,98,85,61,30.08,29.85,5,0,5,0.01
2012-1-11,53.1,47.2,43.1,51.1,44.1,32.4,97,90,58,29.85,29.42,13,1,13,0.76
2012-1-12,48.8,41.3,25.1,45.7,38.2,15.7,97,89,70,29.73,29.43,24,3,24,0.13
2012-1-13,25.3,23.0,20.6,20.0,15.5,9.7,86,73,62,30.15,29.72,16,3,16,0.00
2012-1-14,35.3,28.4,21.3,28.1,20.1,14.5,88,72,47,30.22,30.06,14,1,14,0.00
2012-1-15,40.6,32.0,26.6,28.1,23.8,20.9,88,73,48,30.46,30.09,9,1,9,0.00
2012-1-16,47.0,36.8,27.3,34.6,27.2,21.4,87,69,42,30.42,30.16,4,0,5,0.00
2012-1-17,57.6,48.2,41.2,54.5,41.9,28.2,96,80,53,30.17,29.80,13,1,13,0.77
2012-1-18,43.9,32.4,24.8,36.8,21.4,17.4,82,64,52,30.15,29.94,11,1,11,0.00
2012-1-19,40.6,30.5,19.5,25.8,21.0,14.8,91,70,37,30.14,29.99,6,0,6,0.00
2012-1-20,52.0,41.9,29.7,45.7,34.1,24.1,96,75,51,30.08,29.87,4,0,5,0.03
2012-1-21,52.0,46.2,40.8,51.2,44.4,37.6,98,93,84,30.04,29.74,13,1,13,1.02
2012-1-22,56.9,46.5,35.9,44.4,40.0,34.3,96,79,59,30.11,29.99,10,1,10,0.00
2012-1-23,63.1,53.6,47.0,51.2,47.3,40.8,96,80,56,29.99,29.76,15,1,15,0.40
2012-1-24,55.0,45.3,34.0,45.9,35.4,30.8,89,70,43,30.26,29.93,8,1,8,0.00
2012-1-25,61.8,44.7,32.5,40.7,33.5,27.9,93,68,30,30.26,30.04,6,0,6,0.00
2012-1-26,62.0,53.7,47.6,54.0,47.7,35.2,96,81,55,30.04,29.46,15,0,15,0.03
2012-1-27,62.1,44.4,30.3,55.0,40.0,28.8,96,85,66,30.04,29.44,17,2,17,0.40
2012-1-28,30.3,29.8,29.5,29.0,28.7,28.5,96,96,95,30.03,29.97,2,0,5,0.00
2012-1-30,55.7,42.8,26.4,28.9,22.1,16.9,74,47,25,30.36,30.25,12,1,12,0.00
2012-1-31,62.6,44.0,31.5,29.6,21.9,14.1,76,47,16,30.35,30.16,13,1,2,0.00
2012-2-1,51.0,45.7,39.6,47.5,39.2,19.9,98,82,30,30.18,30.02,5,0,0,0.71
2012-2-2,59.8,49.1,35.0,48.7,40.5,27.9,100,77,30,30.32,30.00,12,1,0,0.08
2012-2-3,61.6,43.3,30.3,36.2,30.9,25.3,96,67,27,30.40,30.24,8,0,0,0.00
2012-2-4,46.8,44.6,41.6,46.3,41.0,29.9,98,88,62,30.24,29.96,7,0,0,0.39
2012-2-5,55.3,47.4,36.0,50.7,43.2,33.9,99,87,56,30.14,29.93,12,1,0,0.11
2012-2-6,49.9,42.2,36.0,39.4,35.7,31.7,94,78,61,30.17,30.07,8,1,0,0.00
2012-2-7,52.6,37.8,27.5,32.8,27.9,17.2,96,72,25,30.22,30.12,7,1,0,0.00
2012-2-8,41.1,36.9,32.4,35.8,30.1,24.3,88,76,66,30.23,30.09,9,1,0,0.01
2012-2-9,42.1,33.5,27.0,25.5,22.6,19.8,82,65,46,30.30,30.16,6,1,0,0.00
2012-2-10,41.9,33.1,25.3,34.0,27.2,21.8,94,80,58,30.18,29.90,8,0,0,0.00
2012-2-11,34.1,28.1,16.9,32.6,21.5,3.0,97,77,45,30.30,29.82,22,3,0,0.00
2012-2-12,33.7,22.7,14.1,13.0,8.0,2.9,78,54,37,30.40,30.28,15,2,0,0.00
2012-2-13,43.3,29.9,16.1,22.5,15.4,11.2,84,57,29,30.31,30.00,7,0,0,0.00
2012-2-14,41.1,37.7,33.4,38.5,29.6,18.2,96,73,52,30.09,29.92,5,0,0,0.00
2012-2-15,62.4,44.7,34.1,38.2,34.7,26.8,94,72,33,30.22,30.06,6,0,0,0.00
2012-2-16,53.6,47.9,44.1,49.9,44.9,26.3,97,91,35,30.08,29.98,9,0,0,0.31
2012-2-17,56.5,45.5,38.0,42.5,35.0,28.0,95,69,35,30.15,30.04,10,1,0,0.00
2012-2-18,61.5,48.4,38.6,34.3,30.3,22.7,80,53,26,30.06,29.88,6,0,0,0.00
2012-2-19,48.6,39.2,30.7,39.9,33.1,24.2,96,82,39,30.02,29.69,12,1,0,0.78
2012-2-20,46.2,33.7,24.2,35.3,28.0,21.7,94,81,51,30.30,30.01,6,0,0,0.00
2012-2-21,59.9,46.1,34.0,37.5,30.3,16.6,78,55,38,30.16,29.85,20,2,0,0.00
2012-2-22,52.6,45.2,34.7,47.4,39.6,28.1,97,82,39,29.88,29.51,14,1,0,0.66
2012-2-23,71.3,57.5,45.5,54.2,48.4,43.7,99,76,42,29.59,29.39,11,1,0,0.00
2012-2-24,66.1,53.3,36.0,57.7,41.7,18.6,91,66,28,29.93,29.37,22,4,0,0.31
2012-2-25,42.1,34.6,27.8,22.2,18.0,13.7,69,51,33,30.33,29.94,18,3,0,0.00
2012-2-26,56.5,33.8,22.5,22.1,18.3,11.2,83,60,20,30.42,30.28,8,1,0,0.00
2012-2-27,61.3,44.4,30.7,37.7,30.1,21.2,77,59,34,30.41,30.27,9,0,9,0.00
2012-2-28,71.1,50.1,34.6,40.5,34.9,30.0,92,62,26,30.37,30.09,10,0,10,0.00
2012-2-29,68.3,58.8,52.0,58.0,50.5,39.8,95,75,58,30.10,29.66,22,2,22,0.24
2012-3-1,66.8,55.4,41.2,58.3,36.1,23.9,92,53,20,29.85,29.65,18,2,18,0.25
2012-3-2,66.3,51.6,39.9,55.2,43.9,29.5,96,76,52,29.83,29.50,20,1,20,0.49
2012-3-3,55.6,47.1,40.8,54.5,31.1,12.3,96,60,21,29.80,29.54,15,2,15,0.22
2012-3-4,43.3,36.0,31.9,27.5,20.6,14.4,81,54,36,29.94,29.73,16,2,16,0.00
2012-3-5,41.6,35.5,27.5,32.8,22.2,12.6,92,60,32,30.47,29.78,18,3,18,0.05
2012-3-6,64.7,41.4,24.2,33.0,20.7,14.0,82,50,17,30.55,30.35,9,1,9,0.00
2012-3-7,65.5,50.4,35.0,40.3,33.1,18.7,75,52,37,30.47,30.26,15,1,15,0.00
2012-3-8,66.3,55.3,45.1,52.4,45.7,39.4,95,73,43,30.27,30.02,13,1,13,0.48
2012-3-9,55.9,45.5,36.5,50.6,33.0,17.9,96,66,24,30.36,30.06,13,2,13,0.08
2012-3-10,62.0,44.2,29.4,32.5,20.8,6.3,74,44,17,30.46,30.33,9,1,11,0.00
2012-3-11,71.1,50.8,36.3,36.5,25.6,19.4,61,40,16,30.47,30.25,8,1,11,0.00
2012-3-12,67.8,57.7,45.4,51.0,44.9,30.8,74,63,47,30.27,30.11,11,1,11,0.00
2012-3-13,72.7,61.0,54.1,56.0,52.2,47.9,95,74,46,30.16,30.03,10,1,11,0.02
2012-3-14,78.1,58.1,48.2,52.8,48.1,43.2,96,74,30,30.21,30.09,10,0,10,0.00
2012-3-15,77.9,59.3,50.5,64.1,50.8,44.5,96,75,36,30.24,30.10,13,1,13,0.39
2012-3-16,74.6,61.2,51.7,56.9,53.9,49.0,97,80,47,30.19,30.06,14,1,14,0.14
2012-3-17,73.9,60.1,50.8,57.2,54.0,49.7,97,82,51,30.20,30.08,10,0,10,0.00
2012-3-18,75.8,61.6,55.1,58.8,55.4,51.7,96,82,50,30.25,30.08,14,1,14,0.41
2012-3-19,80.9,63.5,51.7,56.5,51.3,44.6,98,70,29,30.17,30.03,8,0,8,0.00
2012-3-20,85.9,66.8,53.2,54.0,49.9,44.1,84,59,24,30.14,29.99,9,1,9,0.00
2012-3-21,82.8,66.4,55.3,57.0,53.6,49.9,92,66,33,30.16,30.03,7,1,7,0.00
2012-3-22,83.2,65.1,54.2,60.7,53.4,50.4,91,69,33,30.13,30.00,11,1,5,0.00
2012-3-23,76.3,64.0,57.8,62.6,57.3,52.4,94,81,46,30.03,29.80,10,0,0,0.05
2012-3-24,69.8,56.4,45.7,57.0,49.6,37.2,98,81,32,29.83,29.70,15,1,0,0.24
2012-3-25,55.6,48.5,44.5,49.1,46.6,43.2,97,93,74,29.82,29.73,5,0,0,0.23
2012-3-26,71.8,58.9,48.3,51.6,47.0,37.1,96,68,36,30.09,29.89,12,1,5,0.00
2012-3-27,75.8,55.6,37.5,44.9,32.8,24.3,79,47,17,30.20,30.08,9,1,0,0.00
2012-3-28,76.8,62.1,47.6,56.6,47.6,40.4,79,61,39,30.09,29.84,17,2,0,0.00
2012-3-29,79.4,66.2,55.4,55.1,45.8,33.3,86,52,23,29.92,29.81,13,1,0,0.00
2012-3-30,78.3,60.7,49.6,55.3,48.3,38.7,89,66,34,29.93,29.75,12,1,0,0.00
2012-3-31,74.0,62.5,56.9,58.5,55.2,52.1,98,79,49,29.79,29.68,12,1,0,0.11
2012-4-1,71.8,54.7,45.2,56.1,50.5,44.1,98,88,43,29.83,29.70,10,0,0,0.18
2012-4-2,75.1,60.9,49.9,65.6,55.0,48.7,98,83,46,29.86,29.66,10,0,0,0.02
2012-4-3,83.8,61.2,50.2,59.8,52.8,45.3,97,77,38,29.92,29.76,12,1,0,0.38
2012-4-4,78.1,62.9,52.3,63.0,56.4,51.8,98,82,49,29.82,29.59,11,1,0,0.32
2012-4-5,74.7,58.8,51.0,60.9,55.4,47.9,98,90,55,29.71,29.59,11,1,0,0.35
2012-4-6,66.3,53.7,45.1,48.3,35.0,23.7,90,52,26,30.08,29.70,11,2,0,0.00
2012-4-7,71.1,52.2,35.0,36.6,27.6,8.7,73,45,9,30.23,30.08,7,1,0,0.00
2012-4-8,70.9,55.2,41.3,40.0,32.4,22.8,71,44,27,30.15,30.00,15,2,0,0.00
2012-4-9,70.1,54.0,37.3,34.9,29.3,23.0,75,43,21,30.05,29.87,14,2,0,0.00
2012-4-10,66.1,56.7,47.3,35.5,24.7,11.4,59,30,15,29.92,29.79,14,3,0,0.00
2012-4-11,55.3,43.4,31.5,24.5,19.6,15.6,68,40,25,30.19,29.90,12,2,0,0.00
2012-4-12,37.2,29.8,27.9,28.7,23.0,21.9,81,76,69,30.27,30.16,3,0,0,0.00
2012-4-13,70.1,50.6,33.4,33.4,28.4,21.0,85,49,17,30.21,30.08,13,1,1,0.00
2012-4-14,77.2,59.6,45.2,50.1,38.4,30.9,74,48,27,30.21,30.03,12,1,0,0.00
2012-4-15,82.6,63.9,47.3,55.4,48.8,43.9,88,62,31,30.11,29.99,9,1,0,0.00
2012-4-16,82.0,68.7,58.0,57.6,54.2,49.3,85,62,33,30.06,29.95,14,2,0,0.00
2012-4-17,70.3,62.1,52.5,58.5,50.9,41.8,91,68,45,30.15,30.06,10,1,0,0.03
2012-4-18,55.7,52.6,50.2,54.3,50.9,47.4,97,94,81,30.08,29.99,11,0,5,0.84
2012-4-19,76.3,58.6,46.2,53.4,47.1,36.9,98,72,27,30.03,29.87,5,0,0,0.00
2012-4-20,73.7,59.9,49.4,54.0,50.9,48.3,96,75,42,29.91,29.75,8,1,0,0.00
2012-4-21,66.9,56.9,51.7,59.5,52.0,47.7,96,84,66,29.77,29.69,10,1,0,0.20
2012-4-22,52.9,47.7,39.2,49.2,41.5,33.7,89,79,67,29.74,29.60,16,2,0,0.00
2012-4-23,53.5,43.7,36.8,36.2,25.7,15.2,91,55,24,29.73,29.64,15,2,0,0.02
2012-4-24,59.2,49.2,38.3,40.6,27.4,15.2,69,43,31,29.78,29.68,14,2,0,0.00
2012-4-25,72.3,55.2,45.1,58.4,49.2,40.6,97,82,49,29.87,29.74,8,1,0,0.47
2012-4-26,64.5,61.1,55.0,62.2,58.1,53.9,97,90,74,29.82,29.66,11,1,9,0.34
2012-4-27,74.6,61.0,51.3,59.5,48.8,37.5,96,69,28,30.03,29.81,5,1,5,0.01
2012-4-28,81.4,64.0,49.4,59.9,51.9,41.7,91,67,43,30.05,29.89,10,0,10,0.01
2012-4-29,85.3,65.3,53.9,61.6,56.0,50.7,96,76,32,30.09,29.99,6,0,6,0.00
2012-4-30,85.9,68.9,56.7,61.3,56.6,49.1,97,69,32,30.10,29.94,10,1,10,0.00
2012-5-1,86.1,67.2,59.3,61.3,56.7,50.9,92,73,31,30.04,29.94,11,1,11,0.00
2012-5-2,87.8,71.8,61.6,64.6,60.6,55.6,95,71,35,30.06,29.93,8,0,0,0.00
2012-5-3,84.7,71.6,60.1,66.2,62.1,58.7,96,74,49,30.08,29.95,5,0,0,0.00
2012-5-4,81.6,69.8,62.7,64.0,61.7,58.2,92,77,50,30.04,29.87,10,1,0,0.01
2012-5-5,77.7,65.9,61.0,65.2,61.2,57.2,96,86,52,29.93,29.82,11,0,0,0.13
2012-5-6,86.5,69.8,58.3,63.2,59.8,56.2,98,74,37,29.96,29.82,6,0,0,0.00
2012-5-7,85.5,70.7,59.9,62.0,59.2,56.4,94,69,40,29.91,29.76,6,1,0,0.00
2012-5-8,76.7,67.2,60.5,65.8,60.7,56.2,96,80,61,29.82,29.74,10,1,0,0.19
2012-5-9,63.4,59.6,50.5,60.0,56.2,46.3,96,89,59,29.81,29.68,6,0,0,0.25
2012-5-10,70.8,53.6,45.7,47.9,43.0,34.9,94,72,28,29.98,29.76,6,1,7,0.00
2012-5-11,75.6,55.8,40.6,45.0,39.0,29.9,96,60,20,30.15,29.97,7,0,7,0.00
2012-5-12,79.2,61.3,48.8,56.9,49.8,38.1,85,67,38,30.24,30.11,7,0,7,0.00
2012-5-13,67.3,60.7,58.1,59.5,55.1,49.2,96,83,54,30.13,29.94,11,0,11,0.16
2012-5-14,77.0,63.3,57.5,63.8,59.1,56.5,98,88,55,29.95,29.81,5,0,5,0.66
2012-5-15,73.3,64.3,56.5,60.5,58.3,55.3,97,82,59,29.92,29.85,5,0,5,0.00
2012-5-16,82.0,64.3,53.8,60.3,54.9,50.5,98,76,35,29.96,29.84,6,0,6,0.00
2012-5-17,85.1,67.1,52.9,57.4,53.1,46.5,97,67,27,29.97,29.85,6,1,6,0.00
2012-5-18,86.3,69.3,58.3,59.4,57.2,52.5,94,68,33,30.01,29.92,6,1,6,0.00
2012-5-19,83.8,67.9,56.0,61.8,57.1,53.9,95,71,39,30.08,29.97,7,0,7,0.00
2012-5-20,84.9,68.6,56.3,58.4,52.3,44.5,91,61,27,30.09,29.96,5,0,5,0.00
2012-5-21,84.3,66.0,55.0,61.1,54.7,49.2,88,69,38,29.97,29.83,9,1,9,0.00
2012-5-22,76.8,64.1,55.3,60.6,57.7,53.9,96,81,55,29.85,29.75,6,0,6,0.00
2012-5-23,73.0,63.8,57.3,65.3,59.7,56.2,96,87,65,29.86,29.75,5,0,5,0.05
2012-5-24,85.1,67.5,56.2,61.6,57.2,50.8,98,74,31,29.94,29.82,7,0,7,0.01
2012-5-25,89.5,71.3,57.8,63.8,58.5,54.0,96,69,32,30.06,29.93,5,0,5,0.00
2012-5-26,91.6,72.7,59.6,68.1,61.5,54.3,95,71,37,30.12,29.98,5,0,5,0.00
2012-5-27,92.3,75.7,63.5,66.0,63.1,57.6,95,69,33,30.04,29.91,6,0,6,0.00
2012-5-28,94.5,75.5,63.7,67.5,62.3,56.9,92,67,31,29.97,29.83,10,0,10,0.00
2012-5-29,87.4,70.8,63.7,70.4,63.2,60.4,97,79,47,29.86,29.73,15,1,15,0.10
2012-5-30,85.5,70.8,61.8,64.7,59.1,44.0,98,72,26,29.81,29.72,7,0,7,0.00
2012-5-31,89.7,67.4,55.9,66.4,57.6,50.2,96,75,28,29.83,29.68,11,0,11,0.21
2012-6-1,67.9,62.5,55.0,66.7,58.6,47.3,98,88,57,29.82,29.60,10,1,10,1.00
2012-6-2,69.9,57.4,48.8,50.1,46.0,40.8,94,69,37,29.91,29.81,10,1,10,0.00
2012-6-3,79.0,61.4,47.3,61.6,52.5,45.2,96,76,43,29.92,29.78,8,1,8,0.04
2012-6-4,76.8,64.5,56.7,58.5,55.3,52.4,91,74,45,29.79,29.69,9,1,9,0.01
2012-6-5,77.0,62.2,54.1,57.5,52.9,45.2,97,75,34,29.78,29.67,5,0,6,0.01
2012-6-6,79.4,64.7,55.0,56.9,52.4,47.3,93,66,35,29.92,29.76,5,0,5,0.04
2012-6-7,80.9,64.5,53.5,57.8,51.8,43.3,97,69,27,30.00,29.92,6,0,6,0.01
2012-6-8,84.5,65.3,50.4,55.1,49.3,43.1,93,61,27,30.05,29.93,6,0,6,0.00
2012-6-9,86.5,68.8,54.1,62.1,55.0,48.4,89,65,32,30.03,29.90,6,0,6,0.00
2012-6-10,81.6,70.7,62.9,60.6,58.3,50.6,86,66,39,30.01,29.92,8,1,8,0.00
2012-6-11,82.0,70.8,64.0,69.1,63.8,58.2,93,79,57,29.97,29.86,7,0,7,0.02
2012-6-12,87.4,74.2,66.6,69.0,66.3,63.6,96,78,49,29.89,29.79,9,1,9,0.00
2012-6-13,87.0,71.4,62.1,64.4,58.7,48.1,95,68,27,29.95,29.85,4,0,5,0.00
2012-6-14,90.1,73.4,60.4,63.2,57.2,54.2,81,59,31,30.02,29.92,7,1,7,0.00
2012-6-15,87.0,71.9,61.2,61.7,58.3,55.9,85,64,39,30.11,29.98,7,0,7,0.00
2012-6-16,85.5,71.0,59.5,64.6,58.8,55.3,86,67,42,30.18,30.00,2,0,6,0.00
2012-6-17,78.1,69.0,61.5,65.5,61.2,55.9,93,77,60,30.08,29.92,6,0,7,0.02
2012-6-18,88.6,72.8,61.3,65.0,60.9,57.9,96,71,38,30.00,29.91,9,1,9,0.00
2012-6-19,90.1,73.8,61.0,66.8,61.4,57.5,96,69,35,30.10,29.99,6,0,6,0.00
2012-6-20,94.0,75.2,63.9,66.6,63.9,57.9,95,72,30,30.12,29.99,6,0,6,0.00
2012-6-21,93.4,76.0,64.3,68.4,64.8,58.4,96,73,34,30.01,29.82,9,0,9,0.26
2012-6-22,89.9,73.0,65.2,69.7,66.0,61.7,97,82,41,29.88,29.77,6,0,6,0.26
2012-6-23,69.3,64.3,62.0,68.2,63.4,61.1,98,97,96,29.92,29.82,4,0,5,0.01
2012-6-24,94.0,74.7,60.5,65.1,58.0,52.3,91,61,26,29.93,29.79,3,0,7,0.00
2012-6-25,89.7,75.6,62.9,65.2,60.5,54.2,95,63,33,29.81,29.67,7,1,2,0.00
2012-6-26,83.0,69.8,58.0,54.7,45.8,38.9,68,45,25,29.86,29.72,9,1,0,0.00
2012-6-27,88.2,69.6,54.5,56.8,47.7,41.3,76,50,22,29.97,29.83,5,0,0,0.00
2012-6-28,96.3,74.0,55.9,63.5,54.0,49.1,84,55,23,29.99,29.84,10,1,0,0.00
2012-6-29,102.3,81.8,63.4,68.9,59.2,53.9,79,51,22,29.90,29.73,12,1,0,0.00
2012-6-30,103.1,83.8,68.3,69.0,62.6,56.2,80,53,23,29.83,29.73,6,1,0,0.00
2012-7-1,99.0,82.8,70.9,71.4,64.2,58.3,79,56,28,29.93,29.76,10,1,0,0.00
2012-7-2,91.2,75.3,64.5,71.6,66.3,63.3,97,77,43,30.01,29.88,6,1,11,0.26
2012-7-3,95.4,74.6,65.3,68.3,64.5,60.1,96,75,34,29.98,29.86,12,1,12,1.33
2012-7-4,94.3,73.5,63.4,71.4,66.2,62.3,97,81,38,30.00,29.87,6,0,6,0.02
2012-7-5,94.0,72.3,64.7,71.8,66.8,61.7,96,85,45,30.01,29.84,13,0,13,0.63
2012-7-6,93.4,74.8,63.2,74.4,66.8,62.3,98,80,43,30.00,29.86,6,0,6,0.00
2012-7-7,72.0,69.4,69.3,69.2,67.6,67.3,94,94,90,29.98,29.85,1,0,3,0.00
2012-7-8,95.9,79.2,69.3,74.4,69.8,67.5,94,76,41,30.01,29.73,8,0,8,0.00
2012-7-9,90.7,83.3,71.1,73.6,70.5,64.7,91,67,45,29.97,29.76,5,0,5,0.00
2012-7-10,85.5,71.9,67.3,70.3,68.1,64.4,97,89,53,29.97,29.82,6,0,9,1.49
2012-7-11,69.9,67.3,64.7,68.7,66.2,63.8,97,96,94,30.03,29.92,5,0,2,0.34
2012-7-12,72.5,66.4,62.7,68.4,64.6,61.8,97,94,84,30.07,30.00,5,0,0,0.36
2012-7-13,83.8,70.7,64.5,72.3,67.2,63.5,98,90,60,30.08,29.98,6,0,0,0.85
2012-7-14,89.0,72.8,67.4,72.1,68.6,66.5,98,88,51,30.11,30.00,11,0,0,0.40
2012-7-15,71.8,67.7,65.8,71.2,67.1,65.2,98,98,97,30.13,30.03,3,0,0,0.00
2012-7-16,85.1,72.8,66.6,73.5,69.5,65.6,97,90,58,30.04,29.91,9,0,0,0.37
2012-7-17,85.9,73.6,66.8,72.6,69.3,65.9,98,87,58,29.96,29.86,6,0,0,0.01
2012-7-18,85.5,72.9,67.9,72.2,68.5,65.0,98,87,61,29.97,29.84,11,0,0,0.00
2012-7-19,90.7,74.1,67.3,72.3,68.1,65.9,97,84,51,29.99,29.84,11,0,0,0.32
2012-7-20,83.0,70.3,66.8,71.0,67.6,65.9,98,92,60,29.93,29.83,6,0,6,0.51
2012-7-21,90.3,75.6,67.9,72.2,69.1,67.0,98,83,50,29.99,29.87,4,0,4,0.01
2012-7-22,87.2,75.0,68.4,73.6,70.3,67.1,98,87,54,30.09,29.97,8,0,8,0.30
2012-7-23,87.8,75.0,65.5,73.8,68.6,64.6,98,82,52,30.12,29.98,6,0,6,0.05
2012-7-24,86.5,73.3,65.3,72.7,68.9,62.0,97,87,56,29.99,29.86,8,0,8,0.36
2012-7-25,89.5,74.2,65.5,75.6,69.4,64.6,98,87,57,29.95,29.81,12,0,12,1.39
2012-7-26,92.1,78.5,68.9,72.6,69.7,67.1,98,77,46,29.86,29.72,11,1,11,0.00
2012-7-27,85.7,78.4,70.6,72.7,70.0,67.2,95,76,57,29.87,29.74,11,1,11,0.00
2012-7-28,89.3,75.5,65.0,71.5,64.8,59.0,96,71,46,29.96,29.86,7,1,7,0.00
2012-7-29,91.8,73.7,63.4,66.2,63.0,54.3,96,73,32,29.99,29.88,5,0,5,0.00
2012-7-30,92.5,75.1,63.9,67.7,64.3,61.3,94,73,39,29.94,29.82,5,0,5,0.00
2012-7-31,85.7,73.9,66.0,71.0,66.6,62.9,93,79,57,29.87,29.76,10,0,10,0.70
2012-8-1,86.7,70.9,62.0,71.9,66.3,61.1,98,87,51,29.91,29.77,9,0,0,0.00
2012-8-2,92.1,74.7,63.2,72.1,66.5,62.0,98,79,38,29.86,29.77,5,0,0,0.00
2012-8-3,88.2,71.4,65.6,73.2,67.2,64.4,97,88,56,29.97,29.80,6,0,0,0.96
2012-8-4,87.4,74.0,66.1,72.8,68.7,65.5,98,85,55,30.06,29.91,10,0,0,0.01
2012-8-5,89.7,73.0,66.1,72.7,67.9,64.9,97,86,51,30.11,29.99,10,0,0,0.29
2012-8-6,78.1,70.1,65.8,73.5,68.5,65.2,98,95,78,30.08,29.94,5,0,0,0.59
2012-8-7,85.1,72.7,66.6,72.1,68.8,66.0,98,89,61,29.96,29.86,7,0,0,0.00
2012-8-8,92.1,74.7,67.3,75.1,68.7,62.2,98,85,41,29.95,29.85,5,0,0,0.03
2012-8-9,87.4,70.0,64.3,76.0,66.5,62.9,98,90,58,29.91,29.74,18,0,0,0.70
2012-8-10,79.8,69.3,63.1,69.8,66.4,62.5,99,91,69,29.78,29.70,9,0,0,0.04
2012-8-11,82.8,70.4,63.4,67.4,60.1,52.4,96,73,37,29.92,29.76,5,0,0,0.00
2012-8-12,83.8,66.1,54.4,63.5,57.0,52.6,98,77,38,29.99,29.92,5,0,0,0.00
2012-8-13,82.8,67.8,57.3,64.3,60.1,56.5,98,79,46,29.99,29.87,5,0,0,0.00
2012-8-14,82.6,69.6,63.4,67.7,64.0,61.0,95,83,59,29.90,29.80,6,0,0,0.03
2012-8-15,80.5,66.6,61.6,67.8,62.7,56.1,98,89,47,29.96,29.82,7,0,7,0.36
2012-8-16,86.3,68.0,57.8,64.2,59.6,50.0,98,79,33,30.02,29.87,6,0,5,0.01
2012-8-17,77.9,66.9,59.0,67.1,62.2,57.6,97,86,60,29.93,29.82,4,0,0,0.09
2012-8-18,84.1,69.5,61.8,65.5,61.0,50.5,98,79,33,29.88,29.76,4,0,0,0.00
2012-8-19,77.9,67.0,61.8,64.6,61.4,58.2,97,83,57,29.83,29.75,7,0,0,0.11
2012-8-20,82.2,67.7,57.8,62.5,58.5,49.3,97,77,34,29.94,29.78,7,0,0,0.00
2012-8-21,84.9,65.8,54.5,60.9,54.3,45.1,98,73,27,30.03,29.92,5,0,0,0.00
2012-8-22,87.0,67.0,54.4,60.4,54.7,46.6,97,71,26,30.08,29.98,5,0,0,0.00
2012-8-23,87.8,69.3,58.0,63.0,59.1,52.8,97,74,32,30.10,30.00,6,0,0,0.00
2012-8-24,88.8,70.8,60.7,64.8,61.1,55.6,97,75,35,30.09,29.96,10,0,0,0.00
2012-8-25,88.2,70.2,59.5,66.7,61.8,58.4,97,78,39,30.10,29.98,5,0,0,0.00
2012-8-26,89.0,70.4,58.4,67.1,61.5,57.3,97,77,37,30.11,29.99,4,0,0,0.00
2012-8-27,91.0,72.2,60.9,67.0,62.3,56.6,96,75,35,30.09,29.90,6,0,0,0.00
2012-8-28,91.6,72.5,60.5,68.4,63.3,59.4,96,76,37,29.99,29.82,10,1,0,0.00
2012-8-29,89.9,74.8,66.1,67.9,63.3,54.6,95,71,35,29.94,29.84,5,0,0,0.00
2012-8-30,91.0,73.9,61.3,69.6,64.3,59.3,94,75,45,30.06,29.89,6,0,0,0.00
2012-8-31,90.7,76.0,66.3,71.7,68.1,65.1,97,79,47,30.15,30.02,5,0,0,0.00
2012-9-1,90.3,76.7,67.6,72.7,68.5,65.7,95,78,46,30.10,29.93,5,0,0,0.15
2012-9-2,87.8,72.9,67.6,73.2,68.9,66.7,98,89,52,29.97,29.80,6,0,11,1.60
2012-9-3,80.5,71.0,67.3,73.1,69.0,66.7,98,94,72,29.88,29.80,1,0,7,0.06
2012-9-4,85.3,73.3,65.8,72.2,68.6,65.2,98,86,59,29.86,29.76,7,0,2,0.00
2012-9-5,82.8,73.1,69.9,76.8,70.8,68.1,97,93,68,29.85,29.74,6,0,0,1.24
2012-9-6,86.7,73.5,66.3,70.7,67.9,65.1,98,85,52,29.90,29.77,4,0,0,0.05
2012-9-7,90.3,72.6,63.2,71.5,66.5,62.6,98,84,46,29.91,29.74,5,0,0,0.00
2012-9-8,75.6,66.0,53.3,68.9,63.6,52.2,97,92,69,29.87,29.64,10,1,0,0.43
2012-9-9,76.7,60.2,50.1,59.7,53.3,47.5,99,82,43,29.99,29.86,6,0,0,0.01
2012-9-10,69.3,55.9,51.9,59.8,53.9,51.1,98,93,66,30.11,29.96,6,0,0,0.00
2012-9-11,81.8,62.9,51.9,61.4,54.0,49.4,95,76,38,30.21,30.09,6,0,1,0.00
2012-9-12,84.5,66.4,56.0,62.2,57.7,50.1,98,78,34,30.28,30.14,5,0,0,0.00
2012-9-13,80.9,64.6,55.7,60.4,56.5,53.0,97,78,40,30.29,30.14,5,0,0,0.00
2012-9-14,84.1,66.2,57.3,64.2,57.8,53.9,93,77,38,30.21,30.08,5,0,0,0.00
2012-9-15,82.6,66.6,57.0,62.3,59.2,55.9,97,80,45,30.17,30.03,5,0,0,0.00
2012-9-16,77.9,66.4,60.4,64.0,60.6,58.4,94,83,55,30.05,29.95,4,0,0,0.00
2012-9-17,68.1,64.6,61.2,65.8,63.1,60.3,98,95,86,29.98,29.69,4,0,0,0.89
2012-9-18,66.6,62.9,56.6,65.1,61.3,51.2,98,95,82,29.89,29.57,11,1,0,1.74
2012-9-19,73.5,57.5,49.2,54.5,49.7,45.5,96,78,38,30.07,29.88,5,0,0,0.00
2012-9-20,78.1,61.3,50.7,60.8,54.7,49.1,98,82,44,30.08,29.95,7,0,0,0.00
2012-9-21,78.3,63.6,53.9,62.0,57.2,53.3,98,82,45,30.02,29.87,10,0,0,0.00
2012-9-22,77.7,64.8,51.0,61.7,55.1,45.5,97,73,46,30.01,29.84,9,1,10,0.00
2012-9-23,70.9,55.0,44.6,47.4,41.8,32.0,95,67,25,30.16,29.99,6,0,6,0.00
2012-9-24,73.7,51.4,38.3,49.4,40.0,34.4,96,71,27,30.24,30.09,6,0,6,0.00
2012-9-25,68.6,54.3,42.9,54.7,47.9,40.7,97,81,50,30.18,30.07,11,0,11,0.00
2012-9-26,81.4,63.4,53.2,63.2,56.5,51.8,98,81,45,30.16,30.05,9,0,9,0.00
2012-9-27,79.4,64.6,55.3,63.6,59.2,54.5,98,84,52,30.15,30.03,5,0,5,0.00
2012-9-28,73.9,64.3,58.4,65.5,61.0,57.3,97,90,69,30.06,29.93,4,0,5,0.03
2012-9-29,69.9,62.0,54.2,63.8,60.4,53.4,98,95,70,29.94,29.83,5,0,5,0.41
2012-9-30,70.8,55.9,47.6,56.3,51.7,45.7,99,88,43,29.89,29.78,5,0,5,0.00
2012-10-1,62.0,57.7,53.1,61.1,56.5,52.0,97,96,92,29.82,29.63,10,1,10,0.54
2012-10-2,83.4,68.2,61.8,70.4,63.6,60.6,99,87,48,29.86,29.62,9,1,9,0.63
2012-10-3,73.7,64.4,60.1,62.8,59.9,57.6,97,87,59,30.11,29.85,6,0,6,0.00
2012-10-4,76.3,62.5,53.3,59.7,55.6,50.7,96,81,42,30.22,30.10,5,0,5,0.00
2012-10-5,78.1,60.1,49.6,58.2,53.2,49.0,98,81,41,30.18,29.95,5,0,5,0.00
2012-10-6,63.4,56.1,50.5,57.9,51.8,40.8,98,86,67,30.00,29.87,6,0,6,0.00
2012-10-7,50.8,47.1,41.8,47.5,44.6,40.8,97,91,72,30.13,29.92,5,0,5,0.16
2012-10-8,46.7,44.5,42.3,45.6,43.1,40.2,98,95,88,30.18,30.08,4,0,5,0.19
2012-10-9,55.9,48.2,42.1,47.4,44.9,40.9,97,89,67,30.12,30.01,6,0,6,0.00
2012-10-10,47.6,44.6,41.8,47.1,44.0,41.0,98,97,97,30.07,29.99,4,0,5,0.01
2012-10-11,67.6,51.9,36.0,47.1,40.8,35.0,97,70,34,30.25,30.14,7,0,3,0.00
2012-10-12,65.3,52.5,43.5,48.2,44.7,34.1,95,77,36,30.28,30.14,4,0,0,0.00
2012-10-13,73.2,55.1,43.6,55.3,46.7,41.6,97,76,44,30.32,30.15,7,0,0,0.00
2012-10-14,73.3,59.4,47.4,58.0,51.7,46.0,96,77,52,30.16,29.83,8,0,0,0.00
2012-10-15,65.8,59.4,45.8,58.9,49.8,39.4,98,73,39,29.88,29.77,12,2,0,0.80
2012-10-16,67.4,50.0,39.9,46.7,41.1,35.8,98,76,32,29.97,29.84,6,0,0,0.00
2012-10-17,74.9,53.7,40.5,49.3,43.2,36.8,97,72,27,29.93,29.71,6,0,0,0.00
2012-10-18,72.5,58.4,50.4,55.7,48.7,43.4,87,71,50,29.73,29.60,13,1,0,0.00
2012-10-19,66.8,54.6,40.6,48.5,35.9,25.4,93,55,22,29.71,29.60,11,1,0,0.00
2012-10-20,56.5,51.9,47.0,43.2,39.1,36.4,79,62,51,29.94,29.68,7,1,0,0.00
2012-10-21,67.4,50.6,38.6,47.1,41.5,37.0,96,74,39,30.13,29.94,7,0,0,0.00
2012-10-22,78.1,55.7,42.6,53.7,45.6,41.3,96,73,34,30.21,30.06,5,0,0,0.00
2012-10-23,74.9,58.3,47.3,53.5,49.3,45.9,96,75,42,30.15,30.03,7,0,0,0.00
2012-10-24,79.6,59.0,48.2,52.5,48.0,38.2,97,72,24,30.17,30.01,6,0,0,0.00
2012-10-25,81.6,61.8,49.1,52.5,47.9,41.6,93,65,26,30.09,29.94,6,0,0,0.00
2012-10-26,79.8,59.5,52.2,55.1,51.4,45.0,94,78,30,30.02,29.86,6,0,6,0.00
2012-10-27,62.1,56.7,47.4,53.3,50.1,41.1,88,79,69,29.87,29.78,11,1,13,0.00
2012-10-28,47.6,44.0,38.0,42.9,40.1,34.4,95,86,76,29.87,29.78,11,2,11,0.38
2012-10-29,38.6,37.4,34.0,35.6,34.6,30.6,93,89,85,29.86,29.62,15,2,15,0.05
2012-10-30,36.5,34.8,33.4,34.9,33.1,30.3,95,93,88,29.69,29.50,13,3,13,0.19
2012-10-31,47.3,40.3,35.8,37.9,33.2,28.7,95,77,54,29.78,29.68,12,2,12,0.02
2012-11-1,53.2,45.1,39.9,32.4,25.4,13.1,73,50,24,29.89,29.78,16,2,16,0.00
2012-11-2,58.4,49.3,43.5,36.0,26.6,14.8,65,42,27,29.97,29.81,13,2,13,0.00
2012-11-3,60.4,44.6,31.9,36.3,30.1,26.7,86,60,29,30.11,29.93,8,0,8,0.00
2012-11-4,54.4,47.6,39.9,42.0,38.5,34.8,85,71,54,30.02,29.88,9,1,9,0.00
2012-11-5,53.8,39.5,30.4,35.0,29.7,23.9,96,72,34,30.09,29.98,7,0,7,0.00
2012-11-6,43.2,39.3,32.9,38.4,33.6,28.3,93,80,63,30.01,29.87,5,0,5,0.00
2012-11-7,46.4,40.5,37.3,42.5,38.2,35.7,97,92,80,29.99,29.83,5,0,5,0.09
2012-11-8,54.1,39.9,32.1,39.7,33.6,28.8,97,80,40,30.18,29.99,9,0,5,0.00
2012-11-9,60.7,41.7,29.7,37.0,31.1,27.7,94,70,31,30.29,30.16,6,0,0,0.00
2012-11-10,70.1,47.7,34.1,42.0,33.2,29.8,85,61,27,30.35,30.20,10,0,0,0.00
2012-11-11,73.2,54.2,39.8,44.8,36.2,28.2,76,55,21,30.35,30.18,14,1,0,0.00
2012-11-12,66.6,55.8,41.8,55.6,48.0,39.1,95,77,54,30.27,30.00,17,1,0,0.43
2012-11-13,48.3,37.6,29.5,39.3,27.3,21.6,92,68,39,30.42,30.26,13,2,0,0.00
2012-11-14,51.3,35.6,27.0,32.0,26.6,21.9,89,72,35,30.40,30.23,7,0,9,0.00
2012-11-15,56.3,40.6,31.5,37.0,30.1,27.4,87,68,38,30.29,30.17,8,0,8,0.00
2012-11-16,55.6,40.9,29.3,32.4,27.6,21.4,93,63,27,30.34,30.22,11,1,11,0.00
2012-11-17,61.2,44.0,30.0,30.4,25.3,19.0,86,52,21,30.43,30.32,7,0,7,0.00
2012-11-18,59.5,44.8,32.7,40.0,30.9,19.5,75,59,43,30.44,30.29,7,0,7,0.00
2012-11-19,61.5,45.7,35.2,43.2,37.2,31.8,92,74,46,30.31,30.13,8,0,8,0.00
2012-11-20,61.3,46.2,39.1,41.0,36.0,26.7,92,71,30,30.15,30.01,7,0,7,0.00
2012-11-21,64.0,47.0,36.2,37.7,33.9,29.7,89,64,30,30.17,30.04,10,0,10,0.00
2012-11-22,63.5,45.5,33.7,37.9,32.5,30.0,88,64,31,30.24,30.09,5,0,5,0.00
2012-11-23,56.2,44.3,36.5,44.6,35.7,26.4,92,73,53,30.10,29.93,13,1,13,0.00
2012-11-24,40.8,33.9,23.5,28.1,20.7,16.1,77,59,39,30.15,29.99,10,2,10,0.00
2012-11-25,49.8,31.8,21.3,22.0,18.4,13.2,87,62,23,30.16,30.00,9,0,9,0.00
2012-11-26,55.0,41.0,29.4,40.0,24.1,16.4,92,54,27,30.20,30.05,6,0,6,0.02
2012-11-27,42.8,40.7,35.6,42.0,38.3,31.4,97,91,79,30.24,30.05,11,1,11,0.09
2012-11-28,47.9,36.7,28.2,31.8,27.3,20.5,88,71,38,30.38,30.21,8,1,8,0.00
2012-11-29,54.7,35.4,25.3,30.8,25.1,21.7,95,70,30,30.43,30.28,6,0,6,0.00
2012-11-30,55.7,37.8,28.8,38.5,30.4,25.3,92,76,48,30.37,30.22,10,0,2,0.00
2012-12-1,63.2,45.6,36.2,43.3,37.6,33.8,94,76,46,30.35,30.22,5,0,0,0.00
2012-12-2,65.2,50.4,39.3,47.5,43.1,38.3,97,78,49,30.28,30.14,4,0,13,0.00
2012-12-3,68.9,56.4,49.2,48.5,47.0,45.6,88,72,46,30.24,30.11,12,0,3,0.00
2012-12-4,67.4,55.3,44.5,50.7,46.9,43.4,96,75,48,30.22,30.06,11,0,0,0.00
2012-12-5,60.2,48.9,34.6,54.3,39.5,27.2,93,72,34,30.21,30.04,14,1,0,0.12
2012-12-6,50.4,42.8,33.2,43.4,35.2,24.9,90,76,50,30.17,30.04,5,0,0,0.04
2012-12-7,62.9,48.6,39.5,48.0,43.6,37.9,96,84,57,30.06,29.88,5,0,0,0.00
2012-12-8,64.3,54.1,47.7,52.0,49.1,46.1,95,84,61,29.95,29.86,7,0,0,0.00
2012-12-9,69.6,56.9,48.5,55.4,51.7,47.1,98,84,52,30.00,29.81,7,0,0,0.16
2012-12-10,55.0,52.7,39.8,54.2,50.8,38.3,97,94,83,29.81,29.58,14,1,0,1.29
2012-12-11,39.6,36.1,29.8,38.3,31.9,27.5,96,85,66,30.17,29.80,8,1,0,0.01
2012-12-12,39.9,33.3,29.3,29.4,27.5,24.3,93,80,59,30.30,30.17,9,1,0,0.00
2012-12-13,52.2,34.8,28.4,35.8,28.5,25.3,94,80,39,30.36,30.25,5,0,0,0.00
2012-12-14,53.8,37.0,27.6,36.3,30.0,25.9,96,78,34,30.39,30.17,10,0,0,0.00
2012-12-15,58.3,44.6,36.0,39.7,33.4,28.3,88,67,33,30.19,29.92,4,0,0,0.00
2012-12-16,54.7,48.5,43.6,52.0,47.0,40.0,98,95,76,29.96,29.77,10,0,0,0.41
2012-12-17,53.2,48.2,44.2,51.1,47.3,43.4,98,96,84,29.78,29.56,19,0,0,0.08
2012-12-18,48.3,42.3,31.3,46.3,36.9,30.0,97,83,54,29.91,29.60,12,2,13,0.02
2012-12-19,56.2,43.6,31.2,41.1,35.1,29.7,96,74,53,30.07,29.89,9,0,9,0.00
2012-12-20,52.2,44.4,32.8,47.4,39.6,26.3,97,84,60,30.01,29.49,20,2,0,0.74
2012-12-21,33.2,30.5,27.2,29.8,23.6,18.1,91,76,58,30.04,29.64,18,5,0,0.04
2012-12-22,38.2,28.9,24.8,21.8,18.4,15.5,79,65,45,30.26,30.04,13,2,0,0.00
2012-12-23,47.6,34.0,21.8,39.2,25.9,17.0,96,75,36,30.17,29.97,12,1,0,0.13
2012-12-24,46.2,43.0,40.1,45.3,41.8,38.4,97,96,92,29.97,29.76,6,0,0,0.40
2012-12-25,48.5,44.3,39.9,43.1,41.2,38.8,97,89,74,30.02,29.83,6,0,0,0.11
2012-12-26,47.4,40.4,31.5,43.5,37.8,27.2,96,91,71,29.83,29.38,16,3,0,0.53
2012-12-27,31.9,30.7,29.3,28.6,26.6,25.3,92,85,79,30.11,29.81,14,2,0,0.00
2012-12-28,40.5,35.0,29.5,34.3,29.1,25.3,90,79,67,30.10,29.76,10,0,0,0.00
2012-12-29,39.5,35.4,29.4,37.7,31.6,19.8,96,86,67,30.11,29.63,14,3,0,0.10
2012-12-30,37.2,28.2,23.2,22.8,19.7,16.9,87,71,49,30.44,30.12,11,2,0,0.00
2012-12-31,38.2,31.2,23.2,30.1,24.1,19.9,89,76,55,30.38,30.09,4,0,0,0.00
2013-1-1,42.1,38.3,34.3,41.6,36.4,29.6,98,93,77,30.10,29.90,22,1,0,0.38